Regional Weather Roundup
Issued by NWS

Home | Current Version | Previous Version | Text Only | Print | Product List | Glossary On
Versions: 1 2 3 4 5 6 7 8 9 10 11 12 13 14 15 16 17 18 19 20 21 22 23 24 25 26 27 28 29 30 31 32 33 34 35 36 37 38 39 40 41 42 43 44 45 46 47 48 49 50
000
ASUS43 KLMK 210210
RWRKY
KENTUCKY REGIONAL WEATHER ROUNDUP
NATIONAL WEATHER SERVICE LOUISVILLE KY
1000 PM EDT WED SEP 20 2017

NOTE "FAIR" INDICATES FEW OR NO CLOUDS BELOW 12,000 FEET
WITH NO SIGNIFICANT WEATHER AND/OR OBSTRUCTIONS TO VISIBILITY.

KYZ001>023-026-027-061>063-070>075-210300-
WESTERN AND SOUTH CENTRAL KENTUCKY

CITY           SKY/WX    TMP DP  RH WIND       PRES   REMARKS
PADUCAH        CLEAR     75  69  81 S5        29.96R
HENDERSON      NOT AVBL
OWENSBORO      CLEAR     78  72  81 SE6       29.99R
HOPKINSVILLE   CLEAR     81  72  74 SE6       30.00R
BOWLING GREEN  CLEAR     77  73  87 CALM      30.02R
GLASGOW        CLEAR     71  69  95 CALM      30.03R
$$

KYZ024-025-028>034-038-045-046-053-210300-
NORTH CENTRAL KENTUCKY

CITY           SKY/WX    TMP DP  RH WIND       PRES   REMARKS
LOUISVILLE/SDF CLEAR     79  72  79 SE5       30.00R
LOUISVILLE/LOU CLEAR     74  70  87 CALM      30.01R
FORT KNOX      CLEAR     73  73 100 CALM      30.00R
$$

KYZ035>037-039>044-047>052-055>060-089>105-210300-
NORTHEAST KENTUCKY

CITY           SKY/WX    TMP DP  RH WIND       PRES   REMARKS
LEXINGTON      CLEAR     72  67  84 CALM      30.05R
COVINGTON      CLEAR     73  69  87 CALM      30.02S
FRANKFORT      CLEAR     71  67  87 CALM      30.02R
$$

KYZ054-064>069-076>088-106>120-210300-
SOUTHEAST KENTUCKY

CITY           SKY/WX    TMP DP  RH WIND       PRES   REMARKS
JACKSON        CLEAR     73  65  75 CALM      30.07R
LONDON         CLEAR     72  67  84 CALM      30.06R
SOMERSET       CLEAR     70  70 100 CALM      30.06S
MIDDLESBORO    CLEAR     69  66  92 CALM      30.08R
MONTICELLO     CLEAR     66  65  96 W9        30.07
$$




USA.gov is the U.S. government's official web portal to all federal, state and local government web resources and services.